| time (UTC) | temp F | wind direction | speed MPH | gust MPH | rain 1hr in | rain 24hr in | rain mn in | humidity % | barometer mb |
| 20260831231025 | 99 | 98 | 3.0 | 14.0 | 0.00 | 0.00 | 0.00 | 33 | 1011.5 |
| 20260831230021 | 100 | 85 | 5.0 | 12.0 | 0.00 | 0.00 | 0.00 | 33 | 1011.6 |
| 20260831225020 | 99 | 165 | 6.0 | 11.0 | 0.00 | 0.00 | 0.00 | 32 | 1011.6 |
| 20260831224021 | 99 | 121 | 2.0 | 7.0 | 0.00 | 0.00 | 0.00 | 32 | 1011.6 |
| 20260831223020 | 99 | 122 | 5.0 | 12.0 | 0.00 | 0.00 | 0.00 | 32 | 1011.8 |
| 20260831222025 | 99 | 158 | 6.0 | 12.0 | 0.00 | 0.00 | 0.00 | 32 | 1011.8 |
| 20260831221501 | 99 | 165 | 6.0 | 15.0 | 0.00 | 0.00 | 0.00 | 34 | 1011.9 |
| 20260831220933 | 100 | 167 | 5.0 | 16.0 | 0.00 | 0.00 | 0.00 | 32 | 1011.9 |
| 20260831215015 | 99 | 22 | 3.0 | 10.0 | 0.00 | 0.00 | 0.00 | 33 | 1012.1 |
| 20260831214016 | 98 | 169 | 2.0 | 9.0 | 0.00 | 0.00 | 0.00 | 35 | 1012.1 |
| 20260831213014 | 99 | 102 | 3.0 | 9.0 | 0.00 | 0.00 | 0.00 | 33 | 1012.3 |
| 20260831212015 | 99 | 151 | 3.0 | 9.0 | 0.00 | 0.00 | 0.00 | 33 | 1012.3 |
| 20260831211016 | 100 | 65 | 4.0 | 11.0 | 0.00 | 0.00 | 0.00 | 33 | 1012.2 |
| 20260831210449 | 99 | 180 | 7.0 | 16.0 | 0.00 | 0.00 | 0.00 | 32 | 1012.4 |
| 20260831205015 | 99 | 174 | 7.0 | 18.0 | 0.00 | 0.00 | 0.00 | 32 | 1012.6 |
| 20260831204016 | 98 | 167 | 3.0 | 12.0 | 0.00 | 0.00 | 0.00 | 33 | 1012.8 |
| 20260831203018 | 98 | 167 | 6.0 | 15.0 | 0.00 | 0.00 | 0.00 | 33 | 1013.0 |
| 20260831202009 | 97 | 84 | 3.0 | 12.0 | 0.00 | 0.00 | 0.00 | 35 | 1013.1 |
| 20260831201449 | 97 | 100 | 3.0 | 7.0 | 0.00 | 0.00 | 0.00 | 37 | 1013.1 |
| 20260831200443 | 98 | 110 | 4.0 | 12.0 | 0.00 | 0.00 | 0.00 | 36 | 1013.3 |
| 20260831195008 | 96 | 82 | 3.0 | 10.0 | 0.00 | 0.00 | 0.00 | 37 | 1013.3 |
| 20260831194009 | 97 | 107 | 5.0 | 16.0 | 0.00 | 0.00 | 0.00 | 36 | 1013.5 |
| 20260831193009 | 96 | 157 | 6.0 | 15.0 | 0.00 | 0.00 | 0.00 | 36 | 1013.7 |
| 20260831192008 | 96 | 172 | 4.0 | 11.0 | 0.00 | 0.00 | 0.00 | 35 | 1013.7 |
| 20260831191008 | 97 | 202 | 6.0 | 13.0 | 0.00 | 0.00 | 0.00 | 35 | 1013.8 |
| 20260831190010 | 95 | 157 | 6.0 | 12.0 | 0.00 | 0.00 | 0.00 | 36 | 1013.9 |
| 20260831185004 | 96 | 179 | 8.0 | 19.0 | 0.00 | 0.00 | 0.00 | 37 | 1014.1 |
| 20260831184501 | 96 | 161 | 5.0 | 11.0 | 0.00 | 0.00 | 0.00 | 37 | 1014.1 |
| 20260831183004 | 97 | 159 | 8.0 | 18.0 | 0.00 | 0.00 | 0.00 | 37 | 1014.2 |
| 20260831182002 | 97 | 183 | 5.0 | 16.0 | 0.00 | 0.00 | 0.00 | 37 | 1014.4 |
| 20260831181004 | 96 | 145 | 5.0 | 16.0 | 0.00 | 0.00 | 0.00 | 39 | 1014.5 |
| 20260831180002 | 95 | 181 | 6.0 | 15.0 | 0.00 | 0.00 | 0.00 | 39 | 1014.8 |
| 20260831175005 | 96 | 165 | 8.0 | 16.0 | 0.00 | 0.00 | 0.00 | 39 | 1014.9 |
| 20260831174003 | 96 | 177 | 7.0 | 17.0 | 0.00 | 0.00 | 0.00 | 37 | 1015.1 |
| 20260831173004 | 95 | 148 | 4.0 | 10.0 | 0.00 | 0.00 | 0.00 | 40 | 1015.3 |
| 20260831171958 | 94 | 180 | 6.0 | 11.0 | 0.00 | 0.00 | 0.00 | 42 | 1015.4 |
| 20260831170956 | 93 | 193 | 6.0 | 13.0 | 0.00 | 0.00 | 0.00 | 41 | 1015.4 |
| 20260831165958 | 93 | 161 | 6.0 | 15.0 | 0.00 | 0.00 | 0.00 | 42 | 1015.5 |
| 20260831164958 | 93 | 205 | 7.0 | 13.0 | 0.00 | 0.00 | 0.00 | 42 | 1015.4 |
| 20260831163958 | 92 | 204 | 7.0 | 13.0 | 0.00 | 0.00 | 0.00 | 43 | 1015.5 |
| 20260831162958 | 92 | 190 | 5.0 | 12.0 | 0.00 | 0.00 | 0.00 | 44 | 1015.6 |
| 20260831161958 | 92 | 156 | 5.0 | 10.0 | 0.00 | 0.00 | 0.00 | 45 | 1015.6 |
| 20260831161434 | 91 | 215 | 5.0 | 12.0 | 0.00 | 0.00 | 0.00 | 49 | 1015.7 |
| 20260831160000 | 90 | 196 | 7.0 | 12.0 | 0.00 | 0.00 | 0.00 | 48 | 1015.7 |
| 20260831154952 | 89 | 196 | 6.0 | 12.0 | 0.00 | 0.00 | 0.00 | 49 | 1015.7 |
| 20260831153952 | 89 | 206 | 5.0 | 10.0 | 0.00 | 0.00 | 0.00 | 51 | 1015.6 |
| 20260831152952 | 88 | 230 | 7.0 | 12.0 | 0.00 | 0.00 | 0.00 | 53 | 1015.6 |
| 20260831152437 | 87 | 209 | 5.0 | 10.0 | 0.00 | 0.00 | 0.00 | 54 | 1015.5 |
| 20260831150950 | 87 | 220 | 6.0 | 12.0 | 0.00 | 0.00 | 0.00 | 57 | 1015.5 |
| 20260831145952 | 86 | 196 | 6.0 | 10.0 | 0.00 | 0.00 | 0.00 | 58 | 1015.4 |
| 20260831144951 | 85 | 195 | 6.0 | 10.0 | 0.00 | 0.00 | 0.00 | 59 | 1015.5 |
| 20260831143951 | 85 | 192 | 5.0 | 10.0 | 0.00 | 0.00 | 0.00 | 61 | 1015.5 |
| 20260831142951 | 84 | 190 | 8.0 | 13.0 | 0.00 | 0.00 | 0.00 | 62 | 1015.6 |
| 20260831141945 | 83 | 180 | 7.0 | 11.0 | 0.00 | 0.00 | 0.00 | 63 | 1015.4 |
| 20260831140948 | 83 | 205 | 8.0 | 14.0 | 0.00 | 0.00 | 0.00 | 63 | 1015.4 |
| 20260831140428 | 83 | 148 | 6.0 | 10.0 | 0.00 | 0.00 | 0.00 | 64 | 1015.4 |
| 20260831134944 | 82 | 198 | 7.0 | 11.0 | 0.00 | 0.00 | 0.00 | 66 | 1015.1 |
| 20260831133946 | 82 | 202 | 6.0 | 10.0 | 0.00 | 0.00 | 0.00 | 67 | 1015.1 |
| 20260831132944 | 81 | 201 | 4.0 | 11.0 | 0.00 | 0.00 | 0.00 | 68 | 1014.9 |
| 20260831132420 | 81 | 150 | 3.0 | 8.0 | 0.00 | 0.00 | 0.00 | 70 | 1014.9 |
| 20260831130944 | 80 | 180 | 3.0 | 6.0 | 0.00 | 0.00 | 0.00 | 70 | 1014.6 |
| 20260831130438 | 80 | 190 | 3.0 | 7.0 | 0.00 | 0.00 | 0.00 | 71 | 1014.5 |
| 20260831124940 | 79 | 189 | 1.0 | 6.0 | 0.00 | 0.00 | 0.00 | 72 | 1014.3 |
| 20260831123940 | 78 | 163 | 1.0 | 4.0 | 0.00 | 0.00 | 0.00 | 72 | 1014.2 |
| 20260831122939 | 78 | 163 | 1.0 | 5.0 | 0.00 | 0.00 | 0.00 | 72 | 1014.0 |
| 20260831121941 | 78 | 155 | 2.0 | 5.0 | 0.00 | 0.00 | 0.00 | 71 | 1013.9 |
| 20260831120938 | 78 | 161 | 2.0 | 4.0 | 0.00 | 0.00 | 0.00 | 71 | 1013.7 |
| 20260831115939 | 78 | 161 | 2.0 | 6.0 | 0.00 | 0.00 | 0.00 | 71 | 1013.6 |
| 20260831114938 | 79 | 173 | 2.0 | 5.0 | 0.00 | 0.00 | 0.00 | 70 | 1013.5 |
| 20260831113940 | 79 | 180 | 2.0 | 4.0 | 0.00 | 0.00 | 0.00 | 69 | 1013.4 |
| 20260831112942 | 79 | 187 | 2.0 | 6.0 | 0.00 | 0.00 | 0.00 | 69 | 1013.4 |
| 20260831111934 | 79 | 184 | 2.0 | 5.0 | 0.00 | 0.00 | 0.00 | 68 | 1013.4 |
| 20260831110933 | 79 | 168 | 3.0 | 4.0 | 0.00 | 0.00 | 0.00 | 68 | 1013.3 |
| 20260831105934 | 80 | 155 | 2.0 | 5.0 | 0.00 | 0.00 | 0.00 | 67 | 1013.2 |
| 20260831104933 | 80 | 177 | 3.0 | 6.0 | 0.00 | 0.00 | 0.00 | 66 | 1013.1 |
| 20260831103932 | 80 | 194 | 3.0 | 6.0 | 0.00 | 0.00 | 0.00 | 66 | 1013.0 |
| 20260831102934 | 80 | 171 | 3.0 | 6.0 | 0.00 | 0.00 | 0.00 | 65 | 1013.2 |
| 20260831101933 | 80 | 184 | 2.0 | 6.0 | 0.00 | 0.00 | 0.00 | 65 | 1013.2 |
| 20260831100933 | 80 | 190 | 3.0 | 5.0 | 0.00 | 0.00 | 0.00 | 64 | 1013.2 |
| 20260831095934 | 81 | 196 | 3.0 | 6.0 | 0.00 | 0.00 | 0.00 | 64 | 1013.0 |
| 20260831094930 | 81 | 178 | 3.0 | 5.0 | 0.00 | 0.00 | 0.00 | 63 | 1013.0 |
| 20260831093930 | 81 | 169 | 2.0 | 5.0 | 0.00 | 0.00 | 0.00 | 63 | 1013.0 |
| 20260831093406 | 82 | 196 | 2.0 | 4.0 | 0.00 | 0.00 | 0.00 | 62 | 1013.0 |
| 20260831091928 | 82 | 196 | 3.0 | 4.0 | 0.00 | 0.00 | 0.00 | 61 | 1013.0 |
| 20260831090929 | 82 | 202 | 4.0 | 6.0 | 0.00 | 0.00 | 0.00 | 61 | 1012.9 |
| 20260831085929 | 83 | 188 | 4.0 | 8.0 | 0.00 | 0.00 | 0.00 | 60 | 1012.9 |
| 20260831085423 | 83 | 171 | 5.0 | 9.0 | 0.00 | 0.00 | 0.00 | 60 | 1012.8 |
| 20260831083930 | 83 | 178 | 5.0 | 8.0 | 0.00 | 0.00 | 0.00 | 59 | 1012.7 |
| 20260831083405 | 83 | 199 | 5.0 | 9.0 | 0.00 | 0.00 | 0.00 | 59 | 1012.8 |
| 20260831081928 | 84 | 182 | 6.0 | 11.0 | 0.00 | 0.00 | 0.00 | 58 | 1013.0 |
| 20260831081412 | 84 | 187 | 6.0 | 10.0 | 0.00 | 0.00 | 0.00 | 58 | 1012.9 |
| 20260831075931 | 84 | 184 | 7.0 | 16.0 | 0.00 | 0.00 | 0.00 | 57 | 1012.9 |
| 20260831074930 | 85 | 209 | 8.0 | 15.0 | 0.00 | 0.00 | 0.00 | 56 | 1012.8 |
| 20260831073928 | 85 | 207 | 7.0 | 15.0 | 0.00 | 0.00 | 0.00 | 56 | 1012.7 |
| 20260831072930 | 85 | 178 | 8.0 | 19.0 | 0.00 | 0.00 | 0.00 | 55 | 1012.7 |
| 20260831071928 | 85 | 195 | 8.0 | 15.0 | 0.00 | 0.00 | 0.00 | 54 | 1012.7 |
| 20260831070928 | 86 | 166 | 7.0 | 13.0 | 0.00 | 0.00 | 0.00 | 53 | 1012.6 |
| 20260831065929 | 86 | 165 | 7.0 | 13.0 | 0.00 | 0.00 | 0.00 | 52 | 1012.7 |
| 20260831065404 | 86 | 187 | 4.0 | 9.0 | 0.00 | 0.00 | 0.00 | 51 | 1012.7 |
| 20260831064423 | 86 | 175 | 4.0 | 8.0 | 0.00 | 0.00 | 0.00 | 50 | 1012.7 |
| 20260831062929 | 86 | 187 | 4.0 | 7.0 | 0.00 | 0.00 | 0.00 | 49 | 1012.7 |
| 20260831062405 | 86 | 185 | 4.0 | 8.0 | 0.00 | 0.00 | 0.00 | 49 | 1012.7 |
| 20260831060926 | 87 | 187 | 4.0 | 8.0 | 0.00 | 0.00 | 0.00 | 48 | 1012.6 |
| 20260831055927 | 87 | 141 | 4.0 | 8.0 | 0.00 | 0.00 | 0.00 | 48 | 1012.7 |
| 20260831054927 | 87 | 149 | 4.0 | 11.0 | 0.00 | 0.00 | 0.00 | 47 | 1012.7 |
| 20260831053928 | 87 | 188 | 4.0 | 10.0 | 0.00 | 0.00 | 0.00 | 47 | 1012.7 |
| 20260831052927 | 87 | 139 | 4.0 | 9.0 | 0.00 | 0.00 | 0.00 | 46 | 1012.7 |
| 20260831052411 | 88 | 160 | 4.0 | 10.0 | 0.00 | 0.00 | 0.00 | 46 | 1012.6 |
| 20260831051450 | 88 | 161 | 4.0 | 8.0 | 0.00 | 0.00 | 0.00 | 45 | 1012.5 |
| 20260831051343 | 87 | 156 | 3.0 | 7.0 | 0.00 | 0.00 | 0.00 | 45 | 1012.4 |
| 20260831044924 | 87 | 175 | 2.0 | 7.0 | 0.00 | 0.00 | 0.00 | 44 | 1012.4 |
| 20260831043924 | 88 | 167 | 2.0 | 8.0 | 0.00 | 0.00 | 0.00 | 44 | 1012.4 |
| 20260831042928 | 88 | 167 | 1.0 | 4.0 | 0.00 | 0.00 | 0.00 | 43 | 1012.4 |
| 20260831042409 | 89 | 160 | 1.0 | 4.0 | 0.00 | 0.00 | 0.00 | 42 | 1012.4 |
| 20260831042031 | 89 | 108 | 0.0 | 5.0 | 0.00 | 0.00 | 0.00 | 43 | 1012.4 |
| 20260831035924 | 89 | 180 | 2.0 | 6.0 | 0.00 | 0.00 | 0.00 | 41 | 1012.3 |
| 20260831034925 | 89 | 162 | 1.0 | 5.0 | 0.00 | 0.00 | 0.00 | 41 | 1012.3 |
| 20260831033926 | 90 | 176 | 1.0 | 5.0 | 0.00 | 0.00 | 0.00 | 41 | 1012.3 |
| 20260831032928 | 90 | 155 | 2.0 | 6.0 | 0.00 | 0.00 | 0.00 | 40 | 1012.2 |
| 20260831032426 | 90 | 157 | 1.0 | 6.0 | 0.00 | 0.00 | 0.00 | 40 | 1012.1 |
| 20260831030923 | 90 | 167 | 1.0 | 5.0 | 0.00 | 0.00 | 0.00 | 40 | 1012.0 |
| 20260831025923 | 90 | 158 | 1.0 | 3.0 | 0.00 | 0.00 | 0.00 | 40 | 1011.9 |
| 20260831024923 | 90 | 171 | 0.0 | 2.0 | 0.00 | 0.00 | 0.00 | 39 | 1011.8 |
| 20260831023923 | 90 | 169 | 1.0 | 2.0 | 0.00 | 0.00 | 0.00 | 39 | 1011.7 |
| 20260831022922 | 90 | 158 | 0.0 | 1.0 | 0.00 | 0.00 | 0.00 | 39 | 1011.6 |
| 20260831021923 | 91 | 158 | 0.0 | 1.0 | 0.00 | 0.00 | 0.00 | 38 | 1011.6 |
| 20260831020926 | 91 | 158 | 1.0 | 3.0 | 0.00 | 0.00 | 0.00 | 38 | 1011.3 |
| 20260831015921 | 91 | 162 | 1.0 | 4.0 | 0.00 | 0.00 | 0.00 | 38 | 1011.2 |
| 20260831014922 | 92 | 159 | 1.0 | 3.0 | 0.00 | 0.00 | 0.00 | 37 | 1010.9 |
| 20260831013925 | 92 | 167 | 1.0 | 4.0 | 0.00 | 0.00 | 0.00 | 37 | 1010.9 |
| 20260831012921 | 93 | 141 | 1.0 | 4.0 | 0.00 | 0.00 | 0.00 | 36 | 1010.8 |
| 20260831011920 | 93 | 161 | 2.0 | 7.0 | 0.00 | 0.00 | 0.00 | 36 | 1010.6 |
| 20260831010920 | 94 | 143 | 2.0 | 5.0 | 0.00 | 0.00 | 0.00 | 34 | 1010.7 |
| 20260831005920 | 95 | 155 | 2.0 | 7.0 | 0.00 | 0.00 | 0.00 | 33 | 1010.6 |
| 20260831004920 | 96 | 148 | 4.0 | 10.0 | 0.00 | 0.00 | 0.00 | 33 | 1010.6 |
| 20260831003916 | 96 | 151 | 5.0 | 11.0 | 0.00 | 0.00 | 0.00 | 32 | 1010.5 |
| 20260831002919 | 97 | 128 | 3.0 | 10.0 | 0.00 | 0.00 | 0.00 | 32 | 1010.5 |
| 20260831001915 | 97 | 165 | 4.0 | 13.0 | 0.00 | 0.00 | 0.00 | 31 | 1010.5 |
| 20260831000914 | 98 | 192 | 4.0 | 12.0 | 0.00 | 0.00 | 0.00 | 30 | 1010.5 |
| 20260830235916 | 98 | 154 | 5.0 | 11.0 | 0.00 | 0.00 | 0.00 | 30 | 1010.6 |
| 20260830234912 | 98 | 184 | 4.0 | 12.0 | 0.00 | 0.00 | 0.00 | 30 | 1010.7 |
| 20260830233913 | 98 | 124 | 4.0 | 12.0 | 0.00 | 0.00 | 0.00 | 31 | 1010.6 |
| 20260830232911 | 99 | 132 | 3.0 | 11.0 | 0.00 | 0.00 | 0.00 | 30 | 1010.6 |
| 20260830231911 | 99 | 150 | 2.0 | 8.0 | 0.00 | 0.00 | 0.00 | 29 | 1010.6 |